DW5595 Weather Reports


Display with metric or nautical units.
time (UTC)temp
F
wind
direction
speed
MPH
gust
MPH
rain 1hr
in
rain 24hr
in
rain mn
in
humidity
%
barometer
mb
20260903180041 94 169 0.0 4.0 0.00 0.00 0.00 51 1018.3
20260903174517 93 86 1.0 3.0 0.00 0.00 0.00 54 1018.2
20260903173036 93 336 0.0 5.0 0.00 0.00 0.00 57 1018.3
20260903171530 93 160 0.0 3.0 0.00 0.00 0.00 59 1018.6
20260903170006 92 231 0.0 2.0 0.00 0.00 0.00 57 1018.8
20260903164533 91 239 0.0 2.0 0.00 0.00 0.00 58 1019.0
20260903163032 91 159 0.0 3.0 0.00 0.00 0.00 60 1019.2
20260903161527 91 171 0.0 2.0 0.00 0.00 0.00 62 1019.1
20260903160016 90 142 0.0 2.0 0.00 0.00 0.00 64 1019.3
20260903154513 90 20 3.0 4.0 0.00 0.00 0.00 67 1019.4
20260903153031 88 171 1.0 2.0 0.00 0.00 0.00 72 1019.4
20260903151543 87 330 0.0 2.0 0.00 0.00 0.00 73 1019.5
20260903150041 85 11 1.0 3.0 0.00 0.00 0.00 76 1019.5
20260903143023 83 348 1.0 3.0 0.00 0.00 0.00 78 1019.4
20260903141522 81 352 1.0 4.0 0.00 0.00 0.00 80 1019.4
20260903140011 79 352 0.0 0.0 0.00 0.00 0.00 83 1019.3
20260903134540 78 22 1.0 3.0 0.00 0.00 0.00 87 1019.2
20260903133031 76 42 0.0 4.0 0.00 0.00 0.00 90 1019.2
20260903131533 75 19 1.0 3.0 0.00 0.00 0.00 93 1019.3
20260903130030 74 128 0.0 0.0 0.00 0.00 0.00 95 1019.4
20260903124523 73 119 0.0 0.0 0.00 0.00 0.00 97 1019.5
20260903123030 72 119 0.0 0.0 0.00 0.00 0.00 97 1019.4
20260903121511 71 62 0.0 0.0 0.00 0.00 0.00 97 1019.5
20260903120017 70 170 0.0 0.0 0.00 0.00 0.00 97 1019.4
20260903114558 69 158 0.0 0.0 0.00 0.00 0.00 96 1019.2
20260903113031 69 158 0.0 0.0 0.00 0.00 0.00 96 1018.8
20260903111528 69 158 0.0 0.0 0.00 0.00 0.00 96 1018.6
20260903110025 69 158 0.0 0.0 0.00 0.00 0.00 96 1018.6
20260903104523 69 158 0.0 0.0 0.00 0.00 0.00 96 1018.5
20260903103020 69 158 0.0 0.0 0.00 0.00 0.00 96 1018.4
20260903101516 69 158 0.0 0.0 0.00 0.00 0.00 96 1018.4
20260903100035 69 158 0.0 0.0 0.00 0.00 0.00 96 1018.3
20260903094539 70 158 0.0 0.0 0.00 0.00 0.00 96 1018.1
20260903093050 70 158 0.0 0.0 0.00 0.00 0.00 96 1018.1
20260903091527 70 158 0.0 0.0 0.00 0.00 0.00 96 1018.0
20260903090028 70 158 0.0 0.0 0.00 0.00 0.00 95 1017.9
20260903084529 70 158 0.0 0.0 0.00 0.00 0.00 95 1018.0
20260903083032 70 158 0.0 0.0 0.00 0.00 0.00 96 1017.9
20260903081539 70 158 0.0 0.0 0.00 0.00 0.00 95 1017.9
20260903080035 70 158 0.0 0.0 0.00 0.00 0.00 95 1018.0
20260903074530 71 158 0.0 0.0 0.00 0.00 0.00 95 1017.9
20260903073029 71 158 0.0 0.0 0.00 0.00 0.00 95 1017.9
20260903071527 71 158 0.0 0.0 0.00 0.00 0.00 95 1017.7
20260903070028 71 158 0.0 0.0 0.00 0.00 0.00 95 1017.9
20260903064519 71 158 0.0 0.0 0.00 0.00 0.00 95 1017.6
20260903063015 71 158 0.0 0.0 0.00 0.00 0.00 95 1017.7
20260903061512 72 158 0.0 0.0 0.00 0.00 0.00 95 1017.6
20260903054536 72 158 0.0 0.0 0.00 0.00 0.00 95 1017.9
20260903053027 72 158 0.0 0.0 0.00 0.00 0.00 95 1018.0
20260903051527 72 158 0.0 0.0 0.00 0.00 0.00 95 1018.0
20260903050019 73 158 0.0 0.0 0.00 0.00 0.00 95 1018.0
20260903044514 73 165 0.0 0.0 0.00 0.00 0.00 95 1018.2
20260903043031 73 165 0.0 0.0 0.00 0.00 0.00 94 1018.4
20260903041532 73 206 0.0 0.0 0.00 0.00 0.00 94 1018.4
20260903040033 73 313 0.0 0.0 0.00 0.00 0.00 94 1018.4
20260903034533 74 313 0.0 0.0 0.00 0.00 0.00 94 1018.5
20260903033033 74 313 0.0 0.0 0.00 0.00 0.00 94 1018.6
20260903031526 74 313 0.0 0.0 0.00 0.00 0.00 93 1018.8
20260903030017 75 313 0.0 0.0 0.00 0.00 0.00 93 1018.9
20260903024539 75 313 0.0 0.0 0.00 0.00 0.00 92 1019.1
20260903021536 76 313 0.0 0.0 0.00 0.00 0.00 91 1019.1
20260903020028 76 313 0.0 0.0 0.00 0.00 0.00 91 1018.9
20260903014542 76 313 0.0 0.0 0.00 0.00 0.00 91 1018.7
20260903013023 77 313 0.0 0.0 0.00 0.00 0.00 90 1018.5
20260903011534 78 313 0.0 0.0 0.00 0.00 0.00 88 1018.3
20260903010037 78 313 0.0 0.0 0.00 0.00 0.00 88 1018.2
20260903004537 79 313 0.0 0.0 0.00 0.00 0.00 86 1018.0
20260903001533 81 313 0.0 0.0 0.00 0.00 0.00 82 1017.9
20260903000033 83 313 0.0 0.0 0.00 0.00 0.00 81 1017.6
20260902234527 84 313 0.0 0.0 0.00 0.00 0.00 76 1017.5
20260902233020 86 313 0.0 0.0 0.00 0.00 0.00 75 1017.6
20260902231538 86 313 0.0 0.0 0.00 0.00 0.00 70 1017.7
20260902230032 87 313 0.0 0.0 0.00 0.00 0.00 66 1017.6
20260902224534 88 313 0.0 0.0 0.00 0.00 0.00 63 1017.6
20260902223005 89 313 0.0 0.0 0.00 0.00 0.00 61 1017.6
20260902221505 90 313 0.0 2.0 0.00 0.00 0.00 61 1017.6
20260902220005 91 313 0.0 1.0 0.00 0.00 0.00 58 1017.8
20260902214504 92 11 0.0 1.0 0.00 0.00 0.00 58 1017.8
20260902213007 93 325 0.0 2.0 0.00 0.00 0.00 52 1017.8
20260902211504 93 5 1.0 4.0 0.00 0.00 0.00 53 1017.9
20260902210005 92 34 1.0 3.0 0.00 0.00 0.00 55 1018.1
20260902204507 93 346 3.0 5.0 0.00 0.00 0.00 52 1018.1
20260902203007 92 137 3.0 4.0 0.00 0.00 0.00 53 1018.0
20260902201504 93 194 0.0 2.0 0.00 0.00 0.00 51 1018.0
20260902200013 93 261 1.0 5.0 0.00 0.00 0.00 51 1018.3
20260902194508 93 312 1.0 7.0 0.00 0.00 0.00 53 1018.4
20260902193008 93 268 0.0 8.0 0.00 0.00 0.00 52 1018.5
20260902191510 93 152 0.0 3.0 0.00 0.00 0.00 49 1018.7
20260902190009 93 311 2.0 5.0 0.00 0.00 0.00 50 1018.8
20260902184518 93 276 1.0 2.0 0.00 0.00 0.00 55 1018.9
20260902183010 93 272 0.0 6.0 0.00 0.00 0.00 54 1019.1
20260902181508 93 5 0.0 6.0 0.00 0.00 0.00 54 1019.3